Regional Weather Roundup
Issued by NWS Lake Charles, LA

Home | Current Version | Previous Version | Text Only | Print | Product List | Glossary On
Versions: 1 2 3 4 5 6 7 8 9 10 11 12 13 14 15 16 17 18 19 20 21 22 23 24 25 26 27 28 29 30 31 32 33 34 35 36 37 38 39 40 41 42 43 44 45 46 47 48 49 50
000
ASUS44 KLCH 240110
RWRLCH
REGIONAL WEATHER ROUNDUP
NATIONAL WEATHER SERVICE LAKE CHARLES LA
800 PM CDT MON APR 23 2018

Note: "fair" indicates few or no clouds below 12,000 feet with no
significant weather and/or obstructions to visibility.


ACROSS SOUTHEAST TEXAS

CITY           SKY/WX    TMP DP  RH WIND       PRES   REMARKS
BEAUMONT       FAIR      68  53  58 NW8       29.96R
BEAUMONT CITY  FAIR      69  56  63 NW5       29.98R
ORANGE         FAIR      70  57  64 CALM      29.98R
JASPER         FAIR      66  57  72 CALM      30.01S
$$

ACROSS CENTRAL LOUISIANA

CITY           SKY/WX    TMP DP  RH WIND       PRES   REMARKS
LEESVILLE      MOCLDY    63  54  74 NW9       29.98R
FULLERTON      FAIR      63  56  78 CALM      29.96R
ALEXANDRIA INT FAIR      62  54  74 NW8       29.96R
ESLER FIELD    FAIR      60  57  89 CALM      29.97R
DERIDDER       FAIR      64  54  69 NW6       30.00R
OAKDALE        FAIR      64  56  73 CALM      29.97R
OPELOUSAS      FAIR      65  56  74 N9        29.96R
$$

ACROSS SOUTHWEST AND SOUTH CENTRAL LOUISIANA

CITY           SKY/WX    TMP DP  RH WIND       PRES   REMARKS
SULPHUR        FAIR      69  55  60 NW5       29.97R
LAKE CHARLES   FAIR      71  55  56 N8        29.95R
CHENNAULT INT  PTCLDY    70  55  60 N7        29.96R
CAMERON PHI    CLEAR     72  57  60 NW5       29.96R
DEQUINCY       FAIR      67  54  64 N6        29.98R
JENNINGS       FAIR      69  56  63 N7        29.96R
LAFAYETTE      MOCLDY    70  56  61 N7        29.95R
NEW IBERIA     FAIR      69  54  58 NW7       29.96R
ABBEVILLE      FAIR      65  57  73 NW3       29.95R
PATTERSON      CLOUDY    67  60  78 S3        29.96R
SALT POINT       N/A    N/A N/A N/A VRB5      29.94S
$$

SELECTED SITES ACROSS THE REGION

CITY           SKY/WX    TMP DP  RH WIND       PRES   REMARKS
HOUSTON BUSH   FAIR      74  54  49 NW6       29.97R
HOUSTON HOBBY  FAIR      75  49  39 NW10      29.97R
GALVESTON      FAIR      75  56  51 W7        29.97S
COLLEGE STAT   CLEAR     70  53  54 N5        29.98S
CONROE         CLEAR     67  57  70 CALM      29.98R
HUNTSVILLE     CLEAR     70  55  59 CALM      29.98S
LUFKIN         MOCLDY    66  56  70 N3        29.98R
SHREVEPORT     FAIR      63  56  78 W5        29.96S
MONROE         CLOUDY    65  56  72 W5        29.95R
NATCHEZ MS     CLOUDY    61  57  87 CALM      29.98R
BATON ROUGE    FAIR      66  54  65 N3        29.95S
N.O. INTL ARPT FAIR      69  58  67 N7        29.95R
SLIDELL        FAIR      63  54  72 N5        29.96R
$$

MARINE REPORTS

STATION/POSITION TIME  SKY/WX   TEMP    WIND        PRES    VSBY
                                AIR SEA DIR/SP/G
                 (UTC)          (F)     (DEG/KT/KT) (MB)    (MI)
BUOY 30 S HIGH I 2350            70 71  230/ 14/ 16 1014.6
WVE H/P(F/S)=  2/ 3

SEA RIM ST PARK  0000            75     310/  9/ 11 1014.6
PORT ARTHUR      0048            72 68  350/  7/ 10 1014.8R
SABINE PASS N    0048            73 71  300/  3/  5 1016.1R
TEXAS POINT      NOT AVBL
CALCASIEU PASS   0048            72 71  340/  6/  7 1013.5R
LK CHARLES BEACH 0048            71 70              1014.0R
MARSH ISLAND     0000            69                   N/A
FRESH WATER LOCK 0048            68 72              1014.4R
AMERADA PASS     0048            67 68  230/  2/  8 1014.3S
$$



USA.gov is the U.S. government's official web portal to all federal, state and local government web resources and services.